GW1595 Weather Reports


Display with metric or nautical units.
time (UTC)temp
F
wind
direction
speed
MPH
gust
MPH
rain 1hr
in
rain 24hr
in
rain mn
in
humidity
%
barometer
mb
20260505041709 60 315 2.0 6.0 0.00 0.00 0.00 85 1010.7
20260505040920 60 293 2.0 6.0 0.00 0.00 0.00 86 1010.8
20260505040401 60 293 2.0 6.0 0.00 0.00 0.00 86 1011.0
20260505035853 60 270 3.0 6.0 0.00 0.00 0.00 86 1010.9
20260505035346 60 293 3.0 4.0 0.00 0.00 0.00 86 1010.8
20260505034832 60 270 2.0 4.0 0.00 0.00 0.00 86 1010.7
20260505034323 60 270 1.0 4.0 0.00 0.00 0.00 87 1010.6
20260505033805 59 270 2.0 4.0 0.00 0.00 0.00 87 1010.7
20260505033251 58 270 1.0 2.0 0.00 0.00 0.00 88 1010.7
20260505033021 58 270 0.0 2.0 0.00 0.00 0.00 88 1010.4
20260505032225 58 270 1.0 2.0 0.00 0.00 0.00 88 1010.6
20260505031726 58 270 0.0 2.0 0.00 0.00 0.00 89 1010.6
20260505031211 57 270 0.0 2.0 0.00 0.00 0.00 89 1010.5
20260505030708 57 270 1.0 2.0 0.00 0.00 0.00 90 1010.6
20260505030149 56 248 0.0 0.0 0.00 0.00 0.00 90 1010.6
20260505025629 56 248 0.0 0.0 0.00 0.00 0.00 90 1010.5
20260505025109 56 248 0.0 0.0 0.00 0.00 0.00 90 1010.5
20260505024605 56 248 0.0 2.0 0.00 0.00 0.00 91 1010.7
20260505024050 56 248 0.0 2.0 0.00 0.00 0.00 91 1010.7
20260505023537 56 248 0.0 0.0 0.00 0.00 0.00 91 1010.6
20260505023022 56 248 0.0 0.0 0.00 0.00 0.00 92 1010.5
20260505022505 55 248 0.0 0.0 0.00 0.00 0.00 91 1010.3
20260505021941 55 248 0.0 0.0 0.00 0.00 0.00 91 1010.3
20260505021424 55 248 0.0 0.0 0.00 0.00 0.00 91 1010.1
20260505021136 55 248 0.0 0.0 0.00 0.00 0.00 91 1009.9
20260505020356 55 248 0.0 0.0 0.00 0.00 0.00 91 1009.8
20260505015842 54 248 0.0 0.0 0.00 0.00 0.00 91 1009.8
20260505015329 54 248 0.0 0.0 0.00 0.00 0.00 91 1009.8
20260505014806 53 248 0.0 0.0 0.00 0.00 0.00 90 1009.9
20260505014307 53 248 0.0 0.0 0.00 0.00 0.00 90 1009.9
20260505013759 53 248 0.0 0.0 0.00 0.00 0.00 90 1010.1
20260505013240 53 248 0.0 0.0 0.00 0.00 0.00 90 1009.9
20260505012948 53 248 0.0 0.0 0.00 0.00 0.00 90 1009.9
20260505012155 53 248 0.0 0.0 0.00 0.00 0.00 90 1010.1
20260505011639 53 248 0.0 0.0 0.00 0.00 0.00 90 1009.9
20260505011123 54 248 0.0 0.0 0.00 0.00 0.00 90 1009.9
20260505010553 54 248 0.0 0.0 0.00 0.00 0.00 90 1010.2
20260505010045 54 248 0.0 0.0 0.00 0.00 0.00 90 1010.2
20260505005758 54 248 0.0 0.0 0.00 0.00 0.00 90 1009.9
20260505005022 54 248 0.0 0.0 0.00 0.00 0.00 90 1009.8
20260505004519 54 248 0.0 0.0 0.00 0.00 0.00 90 1009.7
20260505004239 54 248 0.0 0.0 0.00 0.00 0.00 90 1009.6
20260505003502 54 248 0.0 0.0 0.00 0.00 0.00 90 1009.6
20260505002945 54 248 0.0 0.0 0.00 0.00 0.00 89 1009.6
20260505002417 54 248 0.0 0.0 0.00 0.00 0.00 89 1009.4
20260505001905 55 248 0.0 0.0 0.00 0.00 0.00 89 1009.3
20260505001401 55 248 0.0 0.0 0.00 0.00 0.00 89 1009.0
20260505000854 54 248 0.0 0.0 0.00 0.00 0.00 89 1009.2
20260505000351 55 248 0.0 0.0 0.00 0.00 0.00 88 1009.0
20260504235848 55 248 0.0 0.0 0.00 0.00 0.00 88 1008.5
20260504235343 55 248 0.0 4.0 0.00 0.00 0.00 88 1008.4
20260504234821 55 248 1.0 4.0 0.00 0.00 0.00 87 1008.4
20260504234320 56 270 0.0 0.0 0.00 0.00 0.00 87 1008.2
20260504233819 56 270 0.0 0.0 0.00 0.00 0.00 87 1008.2
20260504233542 56 270 0.0 0.0 0.00 0.00 0.00 86 1008.4
20260504232810 56 270 0.0 0.0 0.00 0.00 0.00 86 1008.2
20260504232258 57 270 0.0 0.0 0.00 0.00 0.00 86 1008.1
20260504231750 57 270 0.0 0.0 0.00 0.00 0.00 85 1007.9
20260504231733 57 270 0.0 0.0 0.00 0.00 0.00 84 1007.9
20260504231451 58 270 0.0 0.0 0.00 0.00 0.00 84 1007.7
20260504230456 58 270 0.0 0.0 0.00 0.00 0.00 84 1007.7
20260504225724 58 270 0.0 0.0 0.00 0.00 0.00 83 1008.0
20260504225450 58 270 0.0 0.0 0.00 0.00 0.00 83 1008.0
20260504224712 59 270 0.0 0.0 0.00 0.00 0.00 82 1008.2
20260504224152 59 270 0.0 0.0 0.00 0.00 0.00 82 1007.7
20260504223646 60 270 0.0 0.0 0.00 0.00 0.00 81 1008.0
20260504223146 60 270 0.0 0.0 0.00 0.00 0.00 81 1007.9
20260504222635 60 270 0.0 0.0 0.00 0.00 0.00 80 1008.1
20260504222134 61 270 0.0 0.0 0.00 0.00 0.00 79 1008.0
20260504221630 62 270 0.0 0.0 0.00 0.00 0.00 75 1008.1
20260504221620 62 270 0.0 0.0 0.00 0.00 0.00 77 1008.2
20260504220610 63 270 0.0 2.0 0.00 0.00 0.00 74 1008.1
20260504220054 63 270 0.0 2.0 0.00 0.00 0.00 73 1008.4
20260504220042 64 270 1.0 4.0 0.00 0.00 0.00 72 1008.2
20260504215034 64 270 1.0 4.0 0.00 0.00 0.00 71 1008.1
20260504214531 64 270 1.0 2.0 0.00 0.00 0.00 71 1008.2
20260504214011 65 270 2.0 4.0 0.00 0.00 0.00 70 1008.3
20260504213459 66 270 2.0 4.0 0.00 0.00 0.00 68 1008.4
20260504213225 66 270 3.0 4.0 0.00 0.00 0.00 68 1008.1
20260504212447 66 248 1.0 7.0 0.00 0.00 0.00 68 1008.3
20260504211927 67 203 1.0 7.0 0.00 0.00 0.00 67 1008.1
20260504211420 67 225 2.0 4.0 0.00 0.00 0.00 67 1008.1
20260504210902 67 225 2.0 4.0 0.00 0.00 0.00 66 1007.7
20260504210339 68 225 2.0 4.0 0.00 0.00 0.00 65 1007.7
20260504205328 69 270 2.0 4.0 0.00 0.00 0.00 61 1007.5
20260504205026 69 270 1.0 6.0 0.00 0.00 0.00 62 1007.4
20260504204241 70 248 1.0 6.0 0.00 0.00 0.00 60 1007.6
20260504203722 70 270 2.0 6.0 0.00 0.00 0.00 60 1007.6
20260504203209 70 315 3.0 6.0 0.00 0.00 0.00 60 1007.7
20260504202659 70 270 4.0 6.0 0.00 0.00 0.00 60 1007.9
20260504202143 70 270 4.0 6.0 0.00 0.00 0.00 60 1007.5
20260504201633 71 248 1.0 7.0 0.00 0.00 0.00 60 1007.6
20260504201351 70 270 2.0 7.0 0.00 0.00 0.00 59 1007.7
20260504200613 70 315 2.0 6.0 0.00 0.00 0.00 60 1007.9
20260504200039 70 270 4.0 6.0 0.00 0.00 0.00 59 1007.6
20260504195529 71 293 2.0 8.0 0.00 0.00 0.00 58 1007.7
20260504195025 71 270 2.0 8.0 0.00 0.00 0.00 58 1007.9
20260504194754 71 270 1.0 8.0 0.00 0.00 0.00 58 1008.0
20260504194234 71 270 1.0 7.0 0.00 0.00 0.00 58 1007.9
20260504193710 72 270 2.0 7.0 0.00 0.00 0.00 58 1007.7
20260504192928 71 270 2.0 7.0 0.00 0.00 0.00 58 1007.7
20260504192647 71 270 2.0 6.0 0.00 0.00 0.00 57 1007.7
20260504191904 71 293 2.0 6.0 0.00 0.00 0.00 58 1007.5
20260504191404 71 293 2.0 6.0 0.00 0.00 0.00 58 1008.0
20260504191135 71 270 2.0 6.0 0.00 0.00 0.00 58 1008.0
20260504190354 71 270 2.0 6.0 0.00 0.00 0.00 58 1007.7
20260504185847 72 248 2.0 6.0 0.00 0.00 0.00 57 1008.0
20260504185339 71 203 2.0 6.0 0.00 0.00 0.00 58 1008.1
20260504184821 71 293 2.0 7.0 0.00 0.00 0.00 58 1008.1
20260504184308 70 270 2.0 7.0 0.00 0.00 0.00 59 1008.0
20260504183754 71 270 2.0 8.0 0.00 0.00 0.00 58 1008.3
20260504183244 71 270 2.0 8.0 0.00 0.00 0.00 59 1008.3
20260504182738 71 293 4.0 6.0 0.00 0.00 0.00 58 1008.4
20260504182451 71 248 3.0 8.0 0.00 0.00 0.00 59 1008.4
20260504181648 71 270 0.0 9.0 0.00 0.00 0.00 60 1008.3
20260504181134 70 293 6.0 9.0 0.00 0.00 0.00 60 1008.5
20260504180620 70 315 2.0 8.0 0.00 0.00 0.00 60 1008.6
20260504180106 70 270 4.0 8.0 0.00 0.00 0.00 59 1008.7
20260504175554 72 293 3.0 6.0 0.00 0.00 0.00 56 1008.6
20260504175037 70 113 0.0 7.0 0.00 0.00 0.00 59 1008.6
20260504174536 71 293 2.0 7.0 0.00 0.00 0.00 58 1009.0
20260504174006 70 248 2.0 8.0 0.00 0.00 0.00 59 1008.8
20260504173445 70 315 5.0 8.0 0.00 0.00 0.00 59 1009.2
20260504172935 70 270 2.0 9.0 0.00 0.00 0.00 58 1009.0
20260504172424 69 270 3.0 9.0 0.00 0.00 0.00 60 1009.3
20260504172137 70 293 2.0 6.0 0.00 0.00 0.00 58 1009.3
20260504171347 69 270 2.0 6.0 0.00 0.00 0.00 58 1009.5
20260504171114 69 293 2.0 8.0 0.00 0.00 0.00 59 1009.5
20260504170329 69 248 4.0 8.0 0.00 0.00 0.00 60 1009.5
20260504170316 69 293 4.0 7.0 0.00 0.00 0.00 59 1009.6
20260504160114 67 270 4.0 8.0 0.00 0.00 0.00 60 1010.8
20260504150903 67 315 3.0 7.0 0.00 0.00 0.00 61 1011.2
20260504150358 65 293 2.0 7.0 0.00 0.00 0.00 61 1011.4
20260504141224 62 315 4.0 11.0 0.00 0.00 0.00 66 1011.7
20260504140715 63 315 4.0 8.0 0.00 0.00 0.00 67 1011.4
20260504140211 62 270 5.0 8.0 0.00 0.00 0.00 67 1011.5
20260504130453 60 293 1.0 4.0 0.00 0.00 0.00 66 1011.7
20260504120225 53 23 0.0 0.0 0.00 0.00 0.00 81 1011.6
20260504110505 46 23 0.0 0.0 0.00 0.00 0.00 86 1011.0
20260504110229 46 23 0.0 0.0 0.00 0.00 0.00 86 1010.7
20260504100258 49 23 1.0 2.0 0.00 0.00 0.00 75 1010.1
20260504081914 48 0 0.0 0.0 0.00 0.00 0.00 78 1010.2
20260504081351 49 0 0.0 0.0 0.00 0.00 0.00 77 1010.2
20260504080832 49 0 0.0 0.0 0.00 0.00 0.00 76 1009.8
20260504080601 49 0 0.0 0.0 0.00 0.00 0.00 76 1010.1
20260504070140 52 315 0.0 4.0 0.00 0.00 0.00 70 1010.7
20260504050706 54 338 1.0 8.0 0.00 0.00 0.00 73 1011.5
20260504050133 54 338 3.0 8.0 0.00 0.00 0.00 73 1011.6
20260504050113 53 0 0.0 7.0 0.00 0.00 0.00 74 1011.6